Location: Beddau
(51.5575°N, 3.3561°W)
Time: 17:33:01
(UTC+00:00)

Cosmos 1862 Rocket - Pass Details

Date: 03 March 2021
Orbit: 603 x 634 km, 82.5° (Epoch: 13 April)

Event Time Altitude Azimuth Distance (km) Brightness Sun altitude
Rises 18:57:55 0° 348° (NNW) 2,946 7.2 -10.2°
Reaches altitude 10° 19:00:10 10° 346° (NNW) 2,033 6.4 -10.5°
Maximum altitude 19:04:40 74° 263° (W) 666 3.9 -11.2°
Drops below altitude 10° 19:09:07 10° 178° (S) 2,011 6.1 -11.9°
Sets 19:11:21 0° 177° (S) 2,911 6.9 -12.3°
